| time (UTC) | temp F | wind direction | speed knots | gust knots | rain 1hr in | rain 24hr in | rain mn in | humidity % | barometer mb |
| 20260510213438 | 59 | 1 | 2.6 | 5.2 | 0.00 | 0.02 | 0.02 | 35 | 1017.5 |
| 20260510212934 | 60 | 28 | 2.6 | 4.3 | 0.00 | 0.02 | 0.02 | 38 | 1017.6 |
| 20260510212432 | 60 | 358 | 2.6 | 5.2 | 0.00 | 0.02 | 0.02 | 35 | 1017.6 |
| 20260510211928 | 60 | 204 | 0.9 | 7.8 | 0.00 | 0.02 | 0.02 | 33 | 1017.4 |
| 20260510211425 | 60 | 356 | 1.7 | 4.3 | 0.00 | 0.02 | 0.02 | 37 | 1017.5 |
| 20260510210920 | 60 | 333 | 2.6 | 3.5 | 0.00 | 0.02 | 0.02 | 36 | 1017.6 |
| 20260510210415 | 59 | 65 | 4.3 | 7.0 | 0.00 | 0.02 | 0.02 | 44 | 1017.5 |
| 20260510205914 | 59 | 73 | 2.6 | 5.2 | 0.00 | 0.02 | 0.02 | 38 | 1017.6 |
| 20260510205409 | 59 | 345 | 0.9 | 5.2 | 0.00 | 0.02 | 0.02 | 46 | 1017.6 |
| 20260510204905 | 59 | 56 | 3.5 | 5.2 | 0.00 | 0.02 | 0.02 | 42 | 1017.5 |
| 20260510204402 | 58 | 77 | 0.9 | 8.7 | 0.00 | 0.02 | 0.02 | 40 | 1017.4 |
| 20260510203858 | 59 | 2 | 3.5 | 7.8 | 0.00 | 0.02 | 0.02 | 41 | 1017.8 |
| 20260510203356 | 59 | 48 | 3.5 | 6.1 | 0.00 | 0.02 | 0.02 | 39 | 1017.7 |
| 20260510202850 | 60 | 328 | 3.5 | 8.7 | 0.00 | 0.02 | 0.02 | 41 | 1017.6 |
| 20260510202346 | 60 | 121 | 1.7 | 6.1 | 0.00 | 0.02 | 0.02 | 36 | 1017.8 |
| 20260510201843 | 59 | 2 | 2.6 | 3.5 | 0.00 | 0.02 | 0.02 | 44 | 1017.8 |
| 20260510201341 | 59 | 284 | 1.7 | 7.0 | 0.00 | 0.02 | 0.02 | 37 | 1017.8 |
| 20260510200837 | 60 | 346 | 0.9 | 5.2 | 0.00 | 0.02 | 0.02 | 39 | 1017.8 |
| 20260510200335 | 59 | 340 | 0.9 | 7.0 | 0.00 | 0.02 | 0.02 | 44 | 1017.8 |
| 20260510195830 | 58 | 354 | 1.7 | 5.2 | 0.00 | 0.02 | 0.02 | 41 | 1017.9 |
| 20260510195327 | 59 | 5 | 3.5 | 6.1 | 0.00 | 0.02 | 0.02 | 39 | 1018.0 |
| 20260510194823 | 58 | 3 | 2.6 | 7.8 | 0.00 | 0.02 | 0.02 | 40 | 1018.0 |
| 20260510194319 | 59 | 41 | 0.9 | 3.5 | 0.00 | 0.02 | 0.02 | 48 | 1018.0 |
| 20260510193815 | 58 | 40 | 5.2 | 6.1 | 0.00 | 0.02 | 0.02 | 42 | 1017.8 |
| 20260510193310 | 59 | 31 | 1.7 | 8.7 | 0.00 | 0.02 | 0.02 | 39 | 1017.8 |
| 20260510192806 | 59 | 347 | 0.9 | 6.1 | 0.00 | 0.02 | 0.02 | 42 | 1017.8 |
| 20260510192301 | 58 | 342 | 1.7 | 5.2 | 0.00 | 0.02 | 0.02 | 39 | 1017.9 |
| 20260510191757 | 58 | 234 | 1.7 | 6.1 | 0.00 | 0.02 | 0.02 | 37 | 1018.0 |
| 20260510191254 | 58 | 0 | 2.6 | 8.7 | 0.00 | 0.02 | 0.02 | 39 | 1018.0 |
| 20260510190752 | 59 | 229 | 5.2 | 6.1 | 0.00 | 0.02 | 0.02 | 37 | 1018.0 |
| 20260510190248 | 58 | 349 | 2.6 | 7.8 | 0.00 | 0.02 | 0.02 | 39 | 1018.0 |
| 20260510185744 | 59 | 227 | 5.2 | 9.6 | 0.00 | 0.02 | 0.02 | 36 | 1017.9 |
| 20260510185244 | 58 | 330 | 1.7 | 10.4 | 0.00 | 0.02 | 0.02 | 40 | 1017.8 |
| 20260510184740 | 58 | 17 | 2.6 | 8.7 | 0.00 | 0.02 | 0.02 | 36 | 1017.7 |
| 20260510184237 | 58 | 359 | 3.5 | 7.0 | 0.00 | 0.02 | 0.02 | 38 | 1017.7 |
| 20260510183737 | 59 | 47 | 4.3 | 8.7 | 0.00 | 0.02 | 0.02 | 44 | 1017.8 |
| 20260510183232 | 59 | 67 | 4.3 | 7.0 | 0.00 | 0.02 | 0.02 | 36 | 1017.8 |
| 20260510182729 | 58 | 330 | 2.6 | 6.1 | 0.00 | 0.02 | 0.02 | 37 | 1017.5 |
| 20260510182224 | 59 | 352 | 3.5 | 6.1 | 0.00 | 0.02 | 0.02 | 35 | 1017.5 |
| 20260510181721 | 59 | 325 | 4.3 | 8.7 | 0.00 | 0.02 | 0.02 | 39 | 1017.4 |
| 20260510181219 | 59 | 353 | 3.5 | 7.0 | 0.00 | 0.02 | 0.02 | 39 | 1017.4 |
| 20260510180714 | 59 | 296 | 2.6 | 5.2 | 0.00 | 0.02 | 0.02 | 39 | 1017.4 |
| 20260510180212 | 58 | 220 | 1.7 | 6.1 | 0.00 | 0.02 | 0.02 | 39 | 1017.4 |
| 20260510175708 | 58 | 155 | 1.7 | 7.0 | 0.00 | 0.02 | 0.02 | 41 | 1017.3 |
| 20260510175204 | 58 | 353 | 4.3 | 6.1 | 0.00 | 0.02 | 0.02 | 39 | 1017.2 |
| 20260510174701 | 59 | 120 | 1.7 | 5.2 | 0.00 | 0.02 | 0.02 | 39 | 1017.3 |
| 20260510174159 | 59 | 69 | 2.6 | 4.3 | 0.00 | 0.02 | 0.02 | 43 | 1017.2 |
| 20260510173654 | 59 | 340 | 0.0 | 6.1 | 0.00 | 0.02 | 0.02 | 35 | 1017.2 |
| 20260510173151 | 59 | 213 | 1.7 | 7.0 | 0.00 | 0.02 | 0.02 | 36 | 1017.3 |
| 20260510172646 | 58 | 350 | 2.6 | 7.8 | 0.00 | 0.02 | 0.02 | 40 | 1017.4 |
| 20260510172143 | 59 | 201 | 1.7 | 6.1 | 0.00 | 0.02 | 0.02 | 38 | 1017.3 |
| 20260510171639 | 59 | 357 | 2.6 | 9.6 | 0.00 | 0.02 | 0.02 | 36 | 1017.4 |
| 20260510171137 | 58 | 56 | 4.3 | 9.6 | 0.00 | 0.02 | 0.02 | 36 | 1017.4 |
| 20260510170633 | 58 | 348 | 2.6 | 7.0 | 0.00 | 0.02 | 0.02 | 44 | 1017.5 |
| 20260510170130 | 59 | 333 | 2.6 | 6.1 | 0.00 | 0.02 | 0.02 | 39 | 1017.3 |
| 20260510165625 | 58 | 15 | 2.6 | 9.6 | 0.00 | 0.02 | 0.02 | 43 | 1017.2 |
| 20260510165121 | 59 | 246 | 0.9 | 8.7 | 0.00 | 0.02 | 0.02 | 32 | 1017.1 |
| 20260510164620 | 58 | 2 | 1.7 | 6.1 | 0.00 | 0.02 | 0.02 | 39 | 1017.0 |
| 20260510164116 | 59 | 206 | 2.6 | 7.8 | 0.00 | 0.02 | 0.02 | 31 | 1017.0 |
| 20260510163611 | 59 | 225 | 4.3 | 8.7 | 0.00 | 0.02 | 0.02 | 35 | 1017.0 |
| 20260510163108 | 58 | 237 | 2.6 | 7.8 | 0.00 | 0.02 | 0.02 | 35 | 1017.1 |
| 20260510162608 | 58 | 204 | 2.6 | 9.6 | 0.00 | 0.02 | 0.02 | 37 | 1017.1 |
| 20260510162104 | 59 | 203 | 1.7 | 9.6 | 0.00 | 0.02 | 0.02 | 35 | 1017.0 |
| 20260510161600 | 59 | 324 | 0.9 | 4.3 | 0.00 | 0.02 | 0.02 | 46 | 1017.0 |
| 20260510161058 | 58 | 5 | 4.3 | 6.1 | 0.00 | 0.02 | 0.02 | 45 | 1016.8 |
| 20260510160555 | 57 | 351 | 2.6 | 4.3 | 0.00 | 0.02 | 0.02 | 42 | 1016.7 |
| 20260510160054 | 56 | 16 | 1.7 | 3.5 | 0.00 | 0.02 | 0.02 | 52 | 1016.7 |
| 20260510155551 | 57 | 61 | 2.6 | 7.8 | 0.00 | 0.02 | 0.02 | 49 | 1016.8 |
| 20260510155047 | 56 | 49 | 3.5 | 7.8 | 0.00 | 0.02 | 0.02 | 47 | 1016.7 |
| 20260510154542 | 57 | 75 | 1.7 | 7.8 | 0.00 | 0.02 | 0.02 | 47 | 1016.5 |
| 20260510154038 | 57 | 17 | 2.6 | 4.3 | 0.00 | 0.02 | 0.02 | 42 | 1016.6 |
| 20260510153533 | 57 | 37 | 2.6 | 5.2 | 0.00 | 0.02 | 0.02 | 48 | 1016.5 |
| 20260510153031 | 56 | 283 | 2.6 | 4.3 | 0.00 | 0.02 | 0.02 | 46 | 1016.6 |
| 20260510152527 | 55 | 42 | 4.3 | 6.1 | 0.00 | 0.02 | 0.02 | 52 | 1016.6 |
| 20260510152024 | 55 | 67 | 1.7 | 5.2 | 0.00 | 0.02 | 0.02 | 47 | 1016.7 |
| 20260510151520 | 55 | 36 | 1.7 | 7.8 | 0.00 | 0.02 | 0.02 | 46 | 1016.6 |
| 20260510151018 | 55 | 358 | 3.5 | 8.7 | 0.00 | 0.02 | 0.02 | 51 | 1016.6 |
| 20260510150513 | 55 | 65 | 5.2 | 6.1 | 0.00 | 0.02 | 0.02 | 49 | 1016.4 |
| 20260510150009 | 56 | 42 | 0.9 | 5.2 | 0.00 | 0.02 | 0.02 | 47 | 1016.3 |
| 20260510145506 | 55 | 37 | 1.7 | 4.3 | 0.00 | 0.02 | 0.02 | 53 | 1016.3 |
| 20260510145002 | 54 | 64 | 4.3 | 7.8 | 0.00 | 0.02 | 0.02 | 48 | 1016.5 |
| 20260510144459 | 55 | 91 | 2.6 | 6.1 | 0.00 | 0.02 | 0.02 | 50 | 1016.4 |
| 20260510143955 | 55 | 45 | 2.6 | 4.3 | 0.00 | 0.02 | 0.02 | 52 | 1016.3 |
| 20260510143451 | 55 | 98 | 1.7 | 5.2 | 0.00 | 0.02 | 0.02 | 47 | 1016.3 |
| 20260510142947 | 55 | 355 | 3.5 | 9.6 | 0.00 | 0.02 | 0.02 | 48 | 1016.3 |
| 20260510142444 | 54 | 71 | 6.1 | 6.1 | 0.00 | 0.02 | 0.02 | 50 | 1016.0 |
| 20260510141941 | 54 | 18 | 3.5 | 6.1 | 0.00 | 0.02 | 0.02 | 46 | 1016.3 |
| 20260510141438 | 54 | 64 | 5.2 | 7.8 | 0.00 | 0.02 | 0.02 | 50 | 1016.3 |
| 20260510140935 | 53 | 23 | 1.7 | 8.7 | 0.00 | 0.02 | 0.02 | 48 | 1016.3 |
| 20260510140431 | 53 | 97 | 2.6 | 7.8 | 0.00 | 0.02 | 0.02 | 49 | 1016.4 |
| 20260510135930 | 53 | 346 | 4.3 | 4.3 | 0.00 | 0.02 | 0.02 | 51 | 1016.4 |
| 20260510135426 | 53 | 51 | 3.5 | 5.2 | 0.00 | 0.02 | 0.02 | 51 | 1016.3 |
| 20260510134924 | 52 | 72 | 2.6 | 6.1 | 0.00 | 0.02 | 0.02 | 52 | 1016.4 |
| 20260510134420 | 51 | 14 | 2.6 | 4.3 | 0.00 | 0.02 | 0.02 | 51 | 1016.3 |
| 20260510133916 | 51 | 74 | 6.1 | 7.8 | 0.00 | 0.02 | 0.02 | 52 | 1016.3 |
| 20260510133413 | 51 | 4 | 3.5 | 5.2 | 0.00 | 0.02 | 0.02 | 57 | 1016.2 |
| 20260510132908 | 51 | 24 | 2.6 | 6.1 | 0.00 | 0.02 | 0.02 | 58 | 1016.1 |
| 20260510132407 | 50 | 24 | 3.5 | 8.7 | 0.00 | 0.02 | 0.02 | 57 | 1016.1 |
| 20260510131903 | 50 | 60 | 3.5 | 7.0 | 0.00 | 0.02 | 0.02 | 57 | 1015.9 |
| 20260510131401 | 51 | 72 | 3.5 | 5.2 | 0.00 | 0.02 | 0.02 | 59 | 1015.9 |
| 20260510130857 | 51 | 43 | 0.0 | 7.8 | 0.00 | 0.02 | 0.02 | 63 | 1015.9 |
| 20260510130354 | 50 | 356 | 1.7 | 7.8 | 0.00 | 0.02 | 0.02 | 63 | 1015.9 |
| 20260510125851 | 50 | 86 | 4.3 | 7.8 | 0.00 | 0.02 | 0.02 | 63 | 1015.7 |
| 20260510125347 | 50 | 355 | 1.7 | 6.1 | 0.00 | 0.02 | 0.02 | 66 | 1015.7 |
| 20260510124844 | 50 | 296 | 3.5 | 7.0 | 0.00 | 0.02 | 0.02 | 67 | 1015.4 |
| 20260510124340 | 50 | 15 | 1.7 | 7.8 | 0.00 | 0.02 | 0.02 | 66 | 1015.4 |
| 20260510123836 | 50 | 47 | 4.3 | 7.8 | 0.00 | 0.02 | 0.02 | 67 | 1015.4 |
| 20260510123332 | 49 | 348 | 3.5 | 8.7 | 0.00 | 0.02 | 0.02 | 68 | 1015.5 |
| 20260510122829 | 49 | 60 | 2.6 | 5.2 | 0.00 | 0.02 | 0.02 | 67 | 1015.3 |
| 20260510122324 | 49 | 51 | 2.6 | 4.3 | 0.00 | 0.02 | 0.02 | 68 | 1015.1 |
| 20260510121821 | 50 | 13 | 2.6 | 5.2 | 0.00 | 0.02 | 0.02 | 67 | 1015.0 |
| 20260510121319 | 49 | 78 | 0.9 | 6.1 | 0.00 | 0.02 | 0.02 | 68 | 1015.1 |
| 20260510120816 | 49 | 359 | 2.6 | 7.0 | 0.00 | 0.02 | 0.02 | 66 | 1014.9 |
| 20260510120312 | 49 | 337 | 2.6 | 5.2 | 0.00 | 0.02 | 0.02 | 69 | 1015.1 |
| 20260510115808 | 49 | 78 | 1.7 | 2.6 | 0.00 | 0.02 | 0.02 | 72 | 1014.9 |
| 20260510115307 | 48 | 357 | 5.2 | 7.8 | 0.00 | 0.02 | 0.02 | 70 | 1014.8 |
| 20260510114801 | 48 | 56 | 3.5 | 6.1 | 0.00 | 0.02 | 0.02 | 70 | 1014.7 |
| 20260510114259 | 48 | 349 | 3.5 | 7.0 | 0.00 | 0.02 | 0.02 | 69 | 1014.7 |
| 20260510113753 | 48 | 67 | 3.5 | 7.8 | 0.00 | 0.02 | 0.02 | 70 | 1014.2 |
| 20260510113251 | 48 | 335 | 4.3 | 10.4 | 0.00 | 0.02 | 0.02 | 70 | 1014.2 |
| 20260510112747 | 48 | 33 | 2.6 | 4.3 | 0.00 | 0.02 | 0.02 | 73 | 1014.0 |
| 20260510112244 | 48 | 53 | 2.6 | 4.3 | 0.00 | 0.02 | 0.02 | 76 | 1014.2 |
| 20260510111740 | 48 | 354 | 6.1 | 6.1 | 0.00 | 0.02 | 0.02 | 76 | 1014.0 |
| 20260510111237 | 48 | 30 | 2.6 | 3.5 | 0.00 | 0.02 | 0.02 | 76 | 1014.0 |
| 20260510110736 | 48 | 3 | 4.3 | 4.3 | 0.00 | 0.02 | 0.02 | 76 | 1013.9 |
| 20260510110235 | 48 | 36 | 2.6 | 6.1 | 0.00 | 0.02 | 0.02 | 76 | 1013.6 |
| 20260510105734 | 48 | 260 | 0.0 | 6.1 | 0.00 | 0.02 | 0.02 | 76 | 1013.3 |
| 20260510105229 | 48 | 60 | 3.5 | 5.2 | 0.00 | 0.02 | 0.02 | 78 | 1013.3 |
| 20260510104726 | 48 | 19 | 1.7 | 4.3 | 0.00 | 0.02 | 0.02 | 78 | 1013.2 |
| 20260510104224 | 48 | 39 | 0.0 | 2.6 | 0.00 | 0.02 | 0.02 | 78 | 1013.0 |
| 20260510103720 | 47 | 70 | 2.6 | 7.8 | 0.00 | 0.02 | 0.02 | 78 | 1012.7 |
| 20260510103217 | 48 | 97 | 0.9 | 6.1 | 0.00 | 0.02 | 0.02 | 77 | 1012.9 |
| 20260510102717 | 48 | 53 | 3.5 | 6.1 | 0.00 | 0.02 | 0.02 | 77 | 1012.8 |
| 20260510102212 | 47 | 130 | 1.7 | 4.3 | 0.00 | 0.02 | 0.02 | 78 | 1012.5 |
| 20260510101710 | 47 | 72 | 0.9 | 5.2 | 0.00 | 0.02 | 0.02 | 79 | 1012.4 |
| 20260510101209 | 48 | 55 | 4.3 | 4.3 | 0.00 | 0.02 | 0.02 | 79 | 1012.3 |
| 20260510100704 | 47 | 348 | 1.7 | 4.3 | 0.00 | 0.02 | 0.02 | 79 | 1012.3 |
| 20260510100202 | 47 | 46 | 1.7 | 3.5 | 0.00 | 0.02 | 0.02 | 80 | 1012.3 |
| 20260510095657 | 48 | 327 | 2.6 | 3.5 | 0.00 | 0.02 | 0.02 | 81 | 1012.2 |
| 20260510095153 | 48 | 32 | 1.7 | 2.6 | 0.00 | 0.02 | 0.02 | 82 | 1012.2 |
| 20260510094651 | 48 | 5 | 0.9 | 1.7 | 0.00 | 0.02 | 0.02 | 83 | 1012.2 |
| 20260510094148 | 48 | 359 | 0.9 | 1.7 | 0.00 | 0.02 | 0.02 | 83 | 1012.0 |
| 20260510093643 | 48 | 48 | 2.6 | 2.6 | 0.00 | 0.02 | 0.02 | 83 | 1012.1 |
| 20260510093141 | 48 | 347 | 0.9 | 2.6 | 0.00 | 0.02 | 0.02 | 84 | 1012.1 |
| 20260510092637 | 47 | 17 | 0.9 | 2.6 | 0.00 | 0.02 | 0.02 | 86 | 1011.8 |
| 20260510092133 | 47 | 25 | 0.9 | 2.6 | 0.00 | 0.02 | 0.02 | 88 | 1011.8 |
| 20260510091629 | 47 | 20 | 1.7 | 1.7 | 0.00 | 0.02 | 0.02 | 90 | 1011.7 |
| 20260510091125 | 46 | 8 | 1.7 | 3.5 | 0.00 | 0.02 | 0.02 | 91 | 1011.6 |
| 20260510090622 | 46 | 8 | 0.9 | 1.7 | 0.00 | 0.02 | 0.02 | 91 | 1011.5 |
| 20260510090119 | 46 | 15 | 1.7 | 2.6 | 0.00 | 0.02 | 0.02 | 91 | 1011.4 |
| 20260510085614 | 46 | 49 | 0.0 | 1.7 | 0.00 | 0.02 | 0.02 | 91 | 1011.3 |
| 20260510085109 | 46 | 50 | 0.0 | 0.9 | 0.00 | 0.02 | 0.02 | 91 | 1011.3 |
| 20260510084606 | 46 | 116 | 0.0 | 0.9 | 0.00 | 0.02 | 0.02 | 91 | 1011.2 |
| 20260510084103 | 46 | 189 | 0.9 | 1.7 | 0.00 | 0.02 | 0.02 | 91 | 1011.2 |
| 20260510083559 | 46 | 44 | 0.0 | 0.9 | 0.00 | 0.02 | 0.02 | 90 | 1011.0 |
| 20260510083055 | 46 | 240 | 0.0 | 0.9 | 0.00 | 0.02 | 0.02 | 90 | 1011.2 |
| 20260510082552 | 46 | 166 | 0.0 | 0.9 | 0.00 | 0.02 | 0.02 | 90 | 1010.9 |
| 20260510082048 | 47 | 129 | 0.0 | 1.7 | 0.00 | 0.02 | 0.02 | 90 | 1010.7 |
| 20260510081543 | 47 | 170 | 0.0 | 1.7 | 0.00 | 0.02 | 0.02 | 90 | 1010.9 |
| 20260510081039 | 47 | 131 | 0.0 | 0.9 | 0.00 | 0.02 | 0.02 | 89 | 1010.7 |
| 20260510080538 | 47 | 157 | 0.0 | 0.0 | 0.00 | 0.02 | 0.02 | 88 | 1010.7 |
| 20260510080035 | 47 | 157 | 0.0 | 1.7 | 0.00 | 0.02 | 0.02 | 88 | 1010.7 |
| 20260510075532 | 46 | 178 | 0.0 | 1.7 | 0.00 | 0.02 | 0.02 | 86 | 1010.5 |
| 20260510075029 | 46 | 135 | 0.0 | 0.0 | 0.00 | 0.02 | 0.02 | 85 | 1010.3 |
| 20260510074527 | 47 | 212 | 0.0 | 0.9 | 0.00 | 0.02 | 0.02 | 85 | 1010.2 |
| 20260510074022 | 47 | 326 | 0.0 | 0.0 | 0.00 | 0.02 | 0.02 | 83 | 1010.2 |
| 20260510073518 | 47 | 326 | 0.0 | 0.0 | 0.00 | 0.02 | 0.02 | 82 | 1009.9 |
| 20260510073015 | 47 | 104 | 0.0 | 0.0 | 0.00 | 0.02 | 0.02 | 81 | 1010.0 |
| 20260510072512 | 48 | 126 | 0.0 | 0.9 | 0.00 | 0.02 | 0.02 | 81 | 1009.9 |
| 20260510072007 | 48 | 288 | 0.0 | 0.9 | 0.00 | 0.02 | 0.02 | 81 | 1009.8 |
| 20260510071504 | 48 | 55 | 0.0 | 1.7 | 0.00 | 0.02 | 0.02 | 80 | 1009.8 |
| 20260510071002 | 48 | 89 | 0.0 | 2.6 | 0.00 | 0.02 | 0.02 | 80 | 1009.6 |
| 20260510070459 | 49 | 127 | 0.0 | 1.7 | 0.00 | 0.02 | 0.02 | 79 | 1009.7 |
| 20260510065954 | 49 | 6 | 0.0 | 2.6 | 0.00 | 0.02 | 0.02 | 78 | 1009.5 |
| 20260510065452 | 49 | 333 | 0.9 | 1.7 | 0.00 | 0.02 | 0.02 | 78 | 1009.8 |
| 20260510064948 | 49 | 237 | 0.0 | 1.7 | 0.00 | 0.02 | 0.02 | 77 | 1009.6 |
| 20260510064445 | 50 | 55 | 1.7 | 2.6 | 0.00 | 0.02 | 0.02 | 75 | 1009.6 |
| 20260510063942 | 51 | 66 | 0.0 | 3.5 | 0.00 | 0.02 | 0.02 | 73 | 1009.6 |
| 20260510063438 | 51 | 1 | 1.7 | 4.3 | 0.00 | 0.02 | 0.02 | 73 | 1009.6 |
| 20260510062936 | 50 | 7 | 1.7 | 2.6 | 0.00 | 0.02 | 0.02 | 74 | 1009.5 |
| 20260510062430 | 51 | 346 | 0.9 | 5.2 | 0.00 | 0.02 | 0.02 | 74 | 1009.3 |
| 20260510061926 | 51 | 89 | 0.0 | 2.6 | 0.00 | 0.02 | 0.02 | 72 | 1009.3 |
| 20260510061423 | 51 | 38 | 1.7 | 4.3 | 0.00 | 0.02 | 0.02 | 72 | 1009.5 |
| 20260510060919 | 51 | 129 | 0.9 | 3.5 | 0.00 | 0.02 | 0.02 | 72 | 1009.3 |
| 20260510060416 | 52 | 88 | 3.5 | 6.1 | 0.00 | 0.02 | 0.02 | 72 | 1009.4 |
| 20260510055912 | 52 | 79 | 2.6 | 4.3 | 0.00 | 0.02 | 0.02 | 72 | 1009.2 |
| 20260510055408 | 52 | 50 | 5.2 | 7.0 | 0.00 | 0.02 | 0.02 | 73 | 1009.1 |
| 20260510054906 | 52 | 84 | 3.5 | 7.8 | 0.00 | 0.02 | 0.02 | 74 | 1008.8 |
| 20260510054402 | 52 | 55 | 2.6 | 5.2 | 0.00 | 0.02 | 0.02 | 74 | 1008.9 |
| 20260510053857 | 52 | 30 | 4.3 | 11.3 | 0.00 | 0.02 | 0.02 | 74 | 1009.0 |
| 20260510053353 | 53 | 2 | 3.5 | 7.8 | 0.00 | 0.02 | 0.02 | 74 | 1008.9 |
| 20260510052849 | 53 | 50 | 6.1 | 11.3 | 0.00 | 0.02 | 0.02 | 75 | 1008.8 |
| 20260510052345 | 53 | 350 | 3.5 | 4.3 | 0.00 | 0.02 | 0.02 | 79 | 1008.4 |
| 20260510051841 | 55 | 2 | 3.5 | 11.3 | 0.00 | 0.02 | 0.02 | 82 | 1008.4 |
| 20260510051338 | 57 | 62 | 2.6 | 6.1 | 0.00 | 0.02 | 0.02 | 84 | 1008.0 |
| 20260510050835 | 58 | 27 | 3.5 | 5.2 | 0.00 | 0.02 | 0.02 | 83 | 1007.7 |
| 20260510050331 | 58 | 241 | 0.9 | 1.7 | 0.00 | 0.02 | 0.02 | 81 | 1007.4 |
| 20260510045829 | 58 | 224 | 0.0 | 2.6 | 0.00 | 0.02 | 0.02 | 80 | 1007.3 |
| 20260510045325 | 59 | 226 | 1.7 | 2.6 | 0.00 | 0.02 | 0.02 | 79 | 1007.3 |
| 20260510044823 | 59 | 235 | 3.5 | 6.1 | 0.00 | 0.02 | 0.02 | 78 | 1007.3 |
| 20260510044319 | 59 | 232 | 3.5 | 8.7 | 0.00 | 0.02 | 0.02 | 78 | 1007.2 |
| 20260510043816 | 58 | 236 | 1.7 | 7.0 | 0.00 | 0.02 | 0.02 | 82 | 1007.0 |
| 20260510043312 | 57 | 236 | 1.7 | 2.6 | 0.02 | 0.02 | 0.02 | 86 | 1006.6 |
| 20260510042810 | 58 | 201 | 1.7 | 3.5 | 0.09 | 0.02 | 0.02 | 83 | 1006.4 |
| 20260510042307 | 59 | 35 | 3.5 | 7.0 | 0.05 | 0.01 | 0.01 | 82 | 1007.0 |
| 20260510041801 | 59 | 346 | 2.6 | 4.3 | 0.00 | 0.00 | 0.00 | 82 | 1006.5 |
| 20260510041300 | 57 | 130 | 0.9 | 3.5 | 0.00 | 0.00 | 0.00 | 84 | 1006.4 |
| 20260510040757 | 58 | 159 | 0.0 | 2.6 | 0.00 | 0.00 | 0.00 | 83 | 1006.2 |
| 20260510040253 | 58 | 89 | 0.0 | 1.7 | 0.00 | 0.00 | 0.00 | 82 | 1006.2 |
| 20260510035749 | 58 | 295 | 0.0 | 1.7 | 0.00 | 0.30 | 0.30 | 82 | 1006.0 |
| 20260510035245 | 58 | 230 | 0.9 | 4.3 | 0.00 | 0.30 | 0.30 | 83 | 1006.1 |
| 20260510034740 | 57 | 142 | 0.0 | 2.6 | 0.00 | 0.30 | 0.30 | 86 | 1005.9 |
| 20260510034239 | 57 | 147 | 0.0 | 0.9 | 0.00 | 0.30 | 0.30 | 86 | 1005.9 |
| 20260510033734 | 57 | 166 | 0.0 | 2.6 | 0.00 | 0.30 | 0.30 | 85 | 1005.9 |
| 20260510033232 | 57 | 142 | 0.9 | 2.6 | 0.00 | 0.30 | 0.30 | 85 | 1005.8 |
| 20260510032728 | 57 | 58 | 0.0 | 1.7 | 0.00 | 0.30 | 0.30 | 84 | 1005.8 |
| 20260510032224 | 58 | 89 | 0.0 | 2.6 | 0.00 | 0.30 | 0.30 | 83 | 1005.7 |
| 20260510031719 | 58 | 191 | 0.0 | 0.9 | 0.00 | 0.30 | 0.30 | 82 | 1006.0 |
| 20260510031216 | 59 | 234 | 0.9 | 3.5 | 0.00 | 0.30 | 0.30 | 82 | 1005.9 |
| 20260510030715 | 58 | 183 | 0.9 | 5.2 | 0.00 | 0.30 | 0.30 | 83 | 1005.9 |
| 20260510030213 | 58 | 318 | 0.0 | 1.7 | 0.00 | 0.30 | 0.30 | 83 | 1005.9 |
| 20260510025710 | 58 | 208 | 1.7 | 3.5 | 0.00 | 0.30 | 0.30 | 82 | 1005.9 |
| 20260510025207 | 58 | 206 | 1.7 | 4.3 | 0.00 | 0.30 | 0.30 | 83 | 1006.0 |
| 20260510024704 | 58 | 218 | 0.0 | 2.6 | 0.00 | 0.30 | 0.30 | 83 | 1006.0 |
| 20260510024201 | 57 | 149 | 0.0 | 4.3 | 0.00 | 0.30 | 0.30 | 85 | 1006.1 |
| 20260510023656 | 57 | 230 | 0.0 | 3.5 | 0.00 | 0.30 | 0.30 | 86 | 1005.9 |
| 20260510023154 | 57 | 332 | 0.0 | 1.7 | 0.00 | 0.30 | 0.30 | 86 | 1005.7 |
| 20260510022649 | 57 | 216 | 1.7 | 2.6 | 0.00 | 0.30 | 0.30 | 86 | 1005.6 |
| 20260510022144 | 57 | 225 | 2.6 | 2.6 | 0.00 | 0.30 | 0.30 | 87 | 1005.8 |
| 20260510021640 | 57 | 187 | 0.0 | 3.5 | 0.00 | 0.30 | 0.30 | 87 | 1005.6 |
| 20260510021137 | 57 | 203 | 0.9 | 3.5 | 0.00 | 0.30 | 0.30 | 87 | 1005.7 |
| 20260510020631 | 57 | 198 | 1.7 | 11.3 | 0.00 | 0.30 | 0.30 | 88 | 1005.8 |
| 20260510020127 | 56 | 179 | 0.0 | 4.3 | 0.00 | 0.30 | 0.30 | 90 | 1005.9 |
| 20260510015623 | 56 | 222 | 1.7 | 2.6 | 0.00 | 0.30 | 0.30 | 92 | 1005.9 |
| 20260510015119 | 55 | 166 | 0.0 | 1.7 | 0.00 | 0.30 | 0.30 | 92 | 1005.3 |
| 20260510014615 | 55 | 117 | 0.0 | 1.7 | 0.00 | 0.30 | 0.30 | 92 | 1005.3 |
| 20260510014113 | 55 | 166 | 0.9 | 0.9 | 0.00 | 0.30 | 0.30 | 92 | 1005.3 |
| 20260510013608 | 55 | 117 | 0.0 | 0.9 | 0.00 | 0.30 | 0.30 | 92 | 1005.1 |
| 20260510013104 | 55 | 205 | 0.0 | 0.9 | 0.00 | 0.30 | 0.30 | 92 | 1005.1 |
| 20260510012603 | 55 | 152 | 0.0 | 1.7 | 0.00 | 0.30 | 0.30 | 92 | 1005.0 |
| 20260510012100 | 55 | 26 | 0.0 | 2.6 | 0.00 | 0.30 | 0.30 | 91 | 1005.2 |
| 20260510011559 | 55 | 138 | 0.0 | 1.7 | 0.00 | 0.30 | 0.30 | 91 | 1005.0 |
| 20260510011056 | 55 | 180 | 0.0 | 1.7 | 0.00 | 0.30 | 0.30 | 91 | 1005.1 |
| 20260510010552 | 55 | 76 | 0.0 | 1.7 | 0.00 | 0.30 | 0.30 | 90 | 1005.2 |
| 20260510010049 | 55 | 159 | 0.0 | 1.7 | 0.00 | 0.30 | 0.30 | 90 | 1005.0 |
| 20260510005550 | 56 | 172 | 0.9 | 1.7 | 0.00 | 0.30 | 0.30 | 90 | 1004.9 |
| 20260510005048 | 56 | 154 | 0.9 | 4.3 | 0.00 | 0.30 | 0.30 | 89 | 1005.1 |
| 20260510004545 | 56 | 130 | 0.0 | 2.6 | 0.00 | 0.30 | 0.30 | 89 | 1005.0 |
| 20260510004043 | 57 | 166 | 0.0 | 4.3 | 0.00 | 0.30 | 0.30 | 88 | 1005.0 |
| 20260510003540 | 57 | 237 | 0.0 | 2.6 | 0.00 | 0.30 | 0.30 | 88 | 1005.0 |
| 20260510003036 | 57 | 170 | 0.9 | 2.6 | 0.00 | 0.30 | 0.30 | 88 | 1004.9 |
| 20260510002531 | 57 | 142 | 0.0 | 1.7 | 0.00 | 0.30 | 0.30 | 88 | 1004.9 |
| 20260510002028 | 57 | 216 | 1.7 | 3.5 | 0.00 | 0.30 | 0.30 | 88 | 1005.0 |
| 20260510001526 | 57 | 198 | 1.7 | 2.6 | 0.00 | 0.30 | 0.30 | 88 | 1004.9 |
| 20260510001024 | 57 | 144 | 0.0 | 4.3 | 0.00 | 0.30 | 0.30 | 88 | 1005.0 |
| 20260510000519 | 58 | 184 | 2.6 | 3.5 | 0.00 | 0.30 | 0.30 | 89 | 1005.0 |
| 20260510000016 | 58 | 208 | 0.9 | 2.6 | 0.00 | 0.30 | 0.30 | 89 | 1004.9 |
| 20260509235513 | 58 | 193 | 0.9 | 3.5 | 0.00 | 0.30 | 0.30 | 90 | 1004.9 |
| 20260509235009 | 58 | 201 | 2.6 | 6.1 | 0.00 | 0.30 | 0.30 | 90 | 1004.9 |
| 20260509234506 | 58 | 224 | 2.6 | 3.5 | 0.00 | 0.30 | 0.30 | 90 | 1004.8 |
| 20260509234004 | 58 | 208 | 1.7 | 3.5 | 0.00 | 0.30 | 0.30 | 90 | 1004.6 |
| 20260509233500 | 58 | 222 | 2.6 | 3.5 | 0.00 | 0.30 | 0.30 | 91 | 1004.7 |
| 20260509232956 | 58 | 243 | 0.0 | 2.6 | 0.00 | 0.30 | 0.30 | 91 | 1004.5 |
| 20260509232454 | 57 | 213 | 1.7 | 3.5 | 0.00 | 0.30 | 0.30 | 92 | 1004.4 |
| 20260509231949 | 57 | 223 | 2.6 | 7.8 | 0.00 | 0.30 | 0.30 | 92 | 1004.6 |
| 20260509231447 | 57 | 231 | 0.9 | 3.5 | 0.00 | 0.30 | 0.30 | 93 | 1004.5 |
| 20260509230945 | 57 | 122 | 2.6 | 4.3 | 0.00 | 0.30 | 0.30 | 93 | 1004.3 |
| 20260509230442 | 57 | 168 | 0.9 | 2.6 | 0.12 | 0.30 | 0.30 | 93 | 1004.4 |
| 20260509225938 | 57 | 213 | 2.6 | 4.3 | 0.14 | 0.29 | 0.29 | 93 | 1004.6 |
| 20260509225434 | 57 | 193 | 3.5 | 8.7 | 0.05 | 0.28 | 0.28 | 93 | 1004.7 |
| 20260509224930 | 57 | 219 | 4.3 | 5.2 | 0.02 | 0.27 | 0.27 | 93 | 1005.1 |
| 20260509224426 | 57 | 192 | 3.5 | 7.8 | 0.02 | 0.27 | 0.27 | 93 | 1004.5 |
| 20260509223923 | 56 | 223 | 6.1 | 9.6 | 0.02 | 0.26 | 0.26 | 93 | 1004.7 |
| 20260509223420 | 57 | 186 | 4.3 | 8.7 | 0.45 | 0.26 | 0.26 | 92 | 1004.7 |
| 20260509222918 | 57 | 228 | 3.5 | 12.2 | 0.85 | 0.25 | 0.25 | 91 | 1004.6 |
| 20260509222412 | 57 | 211 | 6.1 | 14.8 | 1.04 | 0.18 | 0.18 | 86 | 1004.6 |
| 20260509221908 | 59 | 324 | 1.7 | 13.0 | 0.61 | 0.10 | 0.10 | 79 | 1005.0 |
| 20260509221405 | 69 | 2 | 3.5 | 7.8 | 0.00 | 0.00 | 0.00 | 61 | 1003.6 |
| 20260509220900 | 69 | 209 | 2.6 | 8.7 | 0.00 | 0.00 | 0.00 | 55 | 1002.4 |
| 20260509220356 | 69 | 222 | 2.6 | 5.2 | 0.00 | 0.00 | 0.00 | 56 | 1002.1 |
| 20260509215853 | 69 | 307 | 2.6 | 5.2 | 0.00 | 0.00 | 0.00 | 57 | 1002.2 |
| 20260509215349 | 69 | 244 | 0.0 | 4.3 | 0.00 | 0.00 | 0.00 | 55 | 1002.3 |
| 20260509214847 | 70 | 145 | 0.9 | 5.2 | 0.00 | 0.00 | 0.00 | 56 | 1002.2 |
| 20260509214344 | 70 | 41 | 3.5 | 8.7 | 0.00 | 0.00 | 0.00 | 55 | 1002.0 |